Home   Weather   Karaganda   Past weeks

Flag for Kazakhstan Past Weather in Karaganda, Kazakhstan — Yesterday and Last 2 Weeks

Now
23 °F

Clear.


Feels Like: 23 °F
Forecast: 33 / 62 °F
Wind: No wind

Location: Karaganda

Current Time: Sep 25, 2016 at 8:09:54 AM

Latest Report: Sep 25, 2016 at 7:30 AM


Visibility: 10 mi

Pressure: 30.15 "Hg (28.09 "Hg at 555m altitude)

Humidity: 93%

Dew Point: 21 °F

Location of KaragandaLocation

Past Weather in Karaganda — Graph

°F

Karaganda Temperature Yesterday

Maximum temperature yesterday: 64 °F (at 2:30 PM)
Minimum temperature yesterday: 27 °F (at 7:00 AM)
Average temperature yesterday: 46 °F

High & Low Weather Summary for the Past Weeks

 TemperatureHumidityPressure
High82 °F (Sep 11, 11:30 AM)100% (Sep 14, 2:30 AM)30.33 "Hg (Sep 14, 2:30 AM)
Low23 °F (Sep 25, 6:00 AM)13% (Sep 16, 4:30 PM)29.56 "Hg (Sep 11, 10:00 AM)
Average54 °F60%30.00 "Hg
* Reported Sep 10 7:00 AM — Sep 25 7:00 AM, Karaganda, Weather by CustomWeather, © 2016

Note: Actual official high and low records may vary slightly from our data, if they occured in-between our weather recording intervals... More about our weather records

Advertising

Karaganda Weather History for the Previous 24 Hours

Scroll right to see more
 ConditionsComfort  
Time TempWeatherWind HumidityBarometerVisibility
7:00 AM
Sun, Sep 25
23 °FClear.1 mph93%30.15 "Hg10 mi
6:30 AM23 °FClear.1 mph93%30.15 "Hg10 mi
6:00 AM23 °FClear.3 mph86%30.15 "Hg10 mi
5:30 AM25 °FClear.3 mph86%30.15 "Hg10 mi
5:00 AM25 °FClear.1 mph86%30.15 "Hg10 mi
4:30 AM25 °FClear.1 mph86%30.15 "Hg10 mi
4:00 AM27 °FClear.1 mph93%30.15 "Hg10 mi
3:30 AM27 °FClear.3 mph86%30.15 "Hg10 mi
3:00 AM30 °FClear.3 mph80%30.15 "Hg10 mi
2:30 AM28 °FClear.3 mph86%30.15 "Hg10 mi
2:00 AM30 °FPassing clouds.3 mph80%30.15 "HgN/A
1:30 AM32 °FClear.6 mph80%30.15 "Hg10 mi
1:00 AM32 °FClear.3 mph80%30.15 "Hg10 mi
12:30 AM32 °FClear.3 mph80%30.15 "Hg10 mi
12:00 AM32 °FClear.3 mph80%30.18 "Hg10 mi
11:30 PM
Sat, Sep 24
34 °FClear.3 mph75%30.18 "Hg10 mi
11:00 PM36 °FClear.6 mph75%30.18 "Hg10 mi
10:30 PM39 °FClear.6 mph65%30.15 "Hg10 mi
10:00 PM41 °FClear.8 mph66%30.15 "Hg10 mi
9:30 PM43 °FClear.8 mph61%30.18 "Hg10 mi
9:00 PM43 °FClear.10 mph61%30.15 "Hg10 mi
8:30 PM43 °FClear.8 mph57%30.15 "Hg10 mi
8:00 PM45 °FClear.10 mph53%30.15 "Hg10 mi
7:30 PM50 °FSunny.10 mph43%30.15 "Hg10 mi
7:00 PM54 °FSunny.15 mph35%30.15 "Hg10 mi
6:30 PM57 °FSunny.15 mph31%30.15 "Hg10 mi
6:00 PM59 °FSunny.20 mph31%30.15 "Hg10 mi
5:30 PM61 °FSunny.20 mph29%30.15 "Hg10 mi
5:00 PM61 °FSunny.22 mph29%30.15 "Hg10 mi
4:30 PM63 °FSunny.20 mph30%30.15 "Hg10 mi
4:00 PM63 °FPassing clouds.20 mph30%30.15 "HgN/A
3:30 PM63 °FSunny.22 mph30%30.15 "Hg10 mi
3:00 PM63 °FSunny.17 mph27%30.15 "Hg10 mi
2:30 PM64 °FSunny.20 mph28%30.15 "Hg10 mi
2:00 PM63 °FSunny.17 mph27%30.18 "Hg10 mi
1:30 PM63 °FSunny.20 mph30%30.18 "Hg10 mi
1:00 PM63 °FSunny.17 mph34%30.18 "Hg10 mi
12:30 PM61 °FSunny.17 mph39%30.18 "Hg10 mi
12:00 PM61 °FSunny.17 mph42%30.21 "Hg10 mi
11:30 AM59 °FPassing clouds.17 mph45%30.21 "HgN/A
11:00 AM57 °FSunny.17 mph51%30.21 "Hg10 mi
10:30 AM55 °FSunny.13 mph55%30.21 "Hg10 mi
10:00 AM52 °FSunny.8 mph62%30.24 "Hg10 mi
9:30 AM45 °FClear.6 mph87%30.24 "Hg5 mi
9:00 AM41 °FFog.8 mph93%30.24 "Hg3 mi
8:30 AM37 °FFog.3 mph100%30.24 "Hg3 mi
8:00 AM34 °FFog.6 mph100%30.24 "Hg2 mi
Weather by CustomWeather, © 2016

See weather overviewHow to use our weather pages